Location: Agendoh
(31.0664°N, 8.9343°W)
Time: 09:02:16
(UTC+00:00)

USA 215 - Pass Details

Date: 06 December 2021
Orbit: 1099 x 1109 km, 123.0° (Epoch: 14 January)

Event Time Altitude Azimuth Distance (km) Brightness Sun altitude
Rises 06:18:08 0° 109° (ESE) 3,910 8.2 -13.1°
Reaches altitude 10° 06:20:50 10° 101° (E) 2,953 7.0 -12.6°
Maximum altitude 06:26:35 35° 38° (NE) 1,703 4.5 -11.4°
Drops below altitude 10° 06:32:21 10° 336° (NNW) 2,956 5.1 -10.3°
Enters shadow 06:34:17 - 330° (NNW) 3,637 5.5 -9.9°
